Location: Buena Vista
(37.7110°N, 119.7938°W)
Time: 10:10:01
(UTC+00:00)

USA 234 - Pass Details

Date: 13 June 2024
Orbit: 1100 x 1107 km, 123.0° (Epoch: 08 July)

Event Time Altitude Azimuth Distance (km) Brightness Sun altitude
Rises 11:57:47 0° 126° (SE) 3,915 6.4 -7.3°
Reaches altitude 10° 12:00:16 10° 124° (SE) 2,958 5.8 -6.9°
Maximum altitude 12:06:46 72° 41° (NE) 1,156 3.7 -5.8°
Drops below altitude 10° 12:13:17 10° 319° (NW) 2,965 5.5 -4.8°
Sets 12:15:46 0° 317° (NW) 3,924 6.1 -4.4°
